Wind_Speed
19 17 15 12 10 8 6 4 3 2 3 4 6 7 7 8 9 10 11 11 11 12 12 12 13 13 13 13 13 14 13 13 12 11 10 9 9 8 7 7 7 6 5 4
20 18 16 16 14 11 9 7 5 2 1 2 3 5 5 6 7 7 8 9 10 10 11 11 11 12 12 12 13 14 13 12 12 11 10 10 9 8 8 7 7 6 6 5
22 19 20 19 17 14 12 9 8 6 5 4 3 2 3 4 5 5 6 7 7 8 9 9 10 11 11 11 12 12 13 12 12 12 11 10 10 9 8 8 7 7 6 6
25 24 23 21 19 16 13 12 10 9 8 7 5 3 2 2 3 4 6 6 5 5 6 7 8 9 9 10 11 11 11 11 11 11 11 10 10 9 8 8 7 7 6 6
27 27 25 23 20 18 16 14 13 13 11 10 8 7 4 3 2 3 5 6 5 4 3 4 5 7 7 8 9 9 10 10 10 10 10 10 9 9 8 8 8 7 7 7
29 29 28 26 24 21 19 17 16 15 14 12 10 9 6 5 3 3 4 5 5 4 2 2 3 5 5 6 7 7 8 8 9 9 9 9 9 8 8 8 8 7 7 8
29 29 29 27 26 24 22 20 19 18 17 15 13 12 8 6 6 5 5 5 5 5 3 2 2 2 3 4 5 6 7 7 7 8 9 8 8 8 8 8 8 8 8 8
30 29 29 28 27 26 24 23 21 20 18 17 16 15 11 9 8 8 7 7 6 6 5 3 2 1 2 2 3 4 5 5 6 7 8 8 7 7 7 8 9 9 9 9
31 30 29 29 29 28 27 24 22 21 21 20 20 18 15 12 10 9 8 8 7 6 6 6 5 4 3 3 3 3 3 4 5 6 7 8 8 7 8 8 10 10 11 11
32 31 31 31 31 30 29 26 24 23 23 23 22 20 17 15 12 11 10 9 8 7 8 8 7 6 5 4 5 4 4 5 5 6 7 8 8 9 9 9 10 11 11 12
32 32 32 33 33 32 30 29 28 27 26 25 24 21 18 16 15 13 12 11 10 10 10 9 9 8 7 6 6 6 7 7 7 7 7 8 9 9 10 11 11 12 12 13
32 32 33 33 33 33 33 32 30 29 28 26 25 23 20 18 16 15 13 13 12 11 10 10 11 10 10 10 8 8 9 10 10 9 9 9 10 11 11 12 13 13 14 14
33 34 34 34 34 34 34 33 32 31 30 29 27 25 21 20 19 17 15 14 13 12 12 11 11 12 12 12 12 11 11 11 11 12 12 12 12 13 13 13 13 14 14 15
34 35 35 34 32 33 33 32 33 32 32 31 29 26 23 22 21 19 18 16 15 15 15 14 13 13 14 14 13 13 13 13 14 14 15 14 14 15 15 15 14 15 15 16
35 35 35 33 32 32 32 31 32 33 33 32 30 28 26 24 23 22 21 20 18 17 17 16 16 15 15 15 15 15 15 15 15 15 16 16 17 17 17 16 16 17 17 17
37 37 36 35 34 33 34 32 31 33 34 33 31 30 28 26 25 24 22 20 20 18 18 18 18 18 18 17 16 17 17 16 16 17 18 19 18 18 18 18 18 18 19 19
38 39 38 37 36 35 37 34 33 34 34 34 33 31 29 28 27 25 23 22 20 19 18 19 20 21 21 20 19 18 19 19 19 19 20 21 21 21 21 21 21 20 20 20
40 40 39 38 37 37 35 35 34 34 34 33 32 31 31 29 27 27 26 25 22 22 22 22 21 22 22 21 21 21 22 22 22 22 23 23 23 23 23 23 23 23 23 22
40 41 40 40 39 38 37 35 34 34 34 32 32 31 30 30 29 28 27 27 26 25 25 25 24 23 23 23 23 23 24 24 25 25 24 25 25 26 25 25 26 26 25 24
40 41 41 41 40 40 37 36 36 36 36 34 33 32 31 30 30 28 28 29 28 28 28 27 27 26 26 26 27 27 28 28 27 27 27 27 28 28 27 28 28 27 26 26
40 40 41 41 41 39 37 37 37 37 35 33 33 32 32 31 30 29 30 30 30 30 30 30 30 30 29 28 29 29 30 30 30 29 29 29 29 29 29 30 29 28 28 28
38 39 39 39 40 39 37 37 37 36 34 33 32 32 33 32 31 30 30 31 31 31 31 31 31 31 31 31 31 31 32 31 31 30 30 31 31 31 31 32 31 30 29 29
38 38 38 39 39 38 37 37 36 35 35 34 33 33 33 33 32 31 31 31 32 32 32 33 34 33 33 33 33 33 33 32 32 31 32 32 33 33 33 33 32 32 32 32
38 38 37 38 38 37 36 36 36 36 36 35 34 33 33 33 33 33 33 33 33 33 34 34 35 36 35 35 35 34 34 34 33 33 34 34 34 35 34 33 32 32 32 33
36 36 36 37 37 37 36 35 35 35 35 36 36 35 34 34 34 35 35 35 35 35 36 36 36 37 36 36 36 35 35 35 35 35 36 36 36 36 35 34 34 34 33 33
35 36 35 35 35 35 35 35 35 35 35 35 35 36 36 36 37 37 38 38 38 37 37 37 38 39 39 38 37 36 37 37 36 36 36 36 36 35 34 34 33 34 33 33
Wind_Direction
211 208 205 204 203 202 194 181 161 84 53 53 57 51 46 39 39 42 44 49 53 56 58 58 60 64 66 68 68 68 69 69 68 67 66 66 64 61 56 51 45 41 36 28
215 213 210 209 211 214 214 218 223 233 295 12 35 42 44 32 32 34 37 42 50 56 59 60 59 61 63 65 65 64 63 64 64 63 62 60 58 56 51 45 40 37 29 22
216 214 213 213 213 216 222 230 236 244 259 276 316 11 32 21 22 19 23 32 42 50 57 61 60 58 60 61 63 63 61 59 59 58 56 54 51 47 43 39 34 32 22 14
216 213 216 217 217 221 227 235 240 245 253 266 272 290 319 358 4 0 9 14 27 39 50 57 57 56 59 61 63 63 60 57 53 51 52 50 46 44 39 33 28 22 14 7
217 217 218 219 222 227 230 235 242 245 251 256 260 259 264 281 319 328 347 358 2 16 34 51 52 54 57 56 60 61 57 53 49 45 45 41 38 36 32 28 23 17 13 6
219 219 221 222 224 228 232 235 241 244 248 253 258 260 260 268 272 291 316 330 339 343 354 14 36 51 55 54 53 53 50 49 46 42 36 33 32 29 27 24 20 13 9 2
221 221 222 223 223 227 231 235 241 244 246 250 256 260 263 264 266 278 287 293 307 312 311 317 352 35 46 49 46 43 44 46 44 39 33 27 24 21 18 18 14 9 3 356
222 221 223 224 225 227 231 237 242 246 250 252 254 257 259 264 272 277 277 278 288 291 288 280 294 322 344 5 21 25 30 34 32 28 24 20 18 16 15 13 8 3 357 349
222 221 223 226 226 228 232 236 241 248 251 252 253 257 258 264 272 276 272 280 286 284 282 271 270 272 279 296 315 342 1 8 7 9 10 10 7 8 8 7 3 358 350 342
224 221 221 225 227 229 232 235 239 245 252 255 256 257 260 263 267 269 272 278 278 278 277 267 266 269 270 281 292 301 316 327 334 342 348 350 352 353 353 351 350 350 346 340
224 223 221 224 227 229 232 235 238 243 248 255 259 260 261 264 266 269 271 272 272 272 274 267 269 268 265 270 281 293 295 296 305 319 330 335 333 335 337 338 337 338 336 335
224 225 223 223 227 230 232 236 238 241 245 250 255 259 261 262 265 268 271 270 268 265 266 267 264 264 267 270 271 288 290 289 296 303 314 317 321 323 324 328 331 331 331 331
226 228 227 224 226 230 233 236 237 239 243 248 253 257 259 262 265 264 267 269 263 263 263 265 267 265 269 272 272 279 281 290 298 299 303 309 313 318 319 320 322 323 324 324
228 231 231 229 230 232 234 237 238 239 242 247 252 257 257 261 263 262 262 264 260 263 263 265 268 273 276 273 274 276 281 286 291 295 299 302 304 309 313 313 315 318 318 318
229 232 233 233 231 232 235 237 238 240 243 248 251 255 258 259 262 263 264 264 261 261 262 265 268 274 277 276 274 276 278 282 287 291 297 299 300 303 307 308 308 311 313 313
231 233 233 234 234 235 236 236 239 240 243 246 249 252 255 258 260 261 261 264 263 262 261 262 264 270 275 278 279 276 275 278 283 288 292 296 298 300 303 305 305 306 308 310
232 234 235 236 237 239 239 237 240 243 245 246 248 250 253 257 260 261 262 263 264 262 261 261 266 274 276 280 282 280 279 276 278 284 288 292 295 296 298 299 301 303 304 307
234 235 237 238 238 240 242 240 241 244 246 248 250 251 253 256 260 260 260 260 262 262 265 268 272 276 276 277 277 276 277 278 279 282 285 288 290 293 294 296 296 298 299 301
235 237 238 239 241 243 243 243 244 247 249 251 253 253 254 256 256 257 260 261 265 265 265 266 267 271 274 273 273 274 276 278 278 280 282 285 287 289 290 292 292 293 294 295
235 237 238 240 241 243 244 245 246 249 251 253 254 255 255 256 255 257 261 262 263 264 264 264 266 267 268 268 270 272 274 276 277 278 280 282 284 286 287 288 288 288 289 291
235 236 237 239 241 243 243 244 246 247 250 252 254 255 255 256 256 256 259 261 261 262 264 265 268 267 264 264 268 269 272 275 275 276 278 281 282 283 284 285 286 286 287 289
235 236 236 238 240 241 243 245 246 248 249 251 253 254 254 255 255 255 257 260 261 262 265 266 267 265 265 265 266 268 272 275 275 276 278 280 280 280 281 284 284 284 285 286
235 236 238 239 241 243 244 245 247 248 248 249 250 252 253 254 255 256 258 261 260 262 264 266 267 267 268 268 269 272 274 275 277 276 278 279 280 281 280 281 283 283 284 285
234 236 238 240 241 242 244 245 246 247 248 248 249 251 253 254 256 258 259 261 261 262 265 267 268 269 268 269 272 274 274 277 277 277 278 279 279 281 281 281 282 283 284 284
234 235 238 240 241 241 242 244 244 246 248 249 250 252 253 254 256 257 257 259 261 263 265 266 267 269 267 270 271 272 274 275 278 279 280 281 281 281 280 280 281 283 283 283
234 236 239 241 241 242 243 244 245 246 248 250 252 253 253 254 255 256 258 260 262 264 266 268 268 267 269 269 270 271 273 275 276 278 280 280 280 280 280 281 281 282 282 282
Height
5905 5908 5909 5911 5912 5913 5914 5915 5915 5916 5916 5916 5915 5915 5915 5914 5913 5912 5911 5909 5908 5907 5906 5904 5903 5902 5901 5900 5899 5898 5897 5896 5896 5895 5895 5894 5894 5893 5893 5893 5892 5892 5892 5891
5903 5906 5908 5909 5910 5911 5913 5914 5915 5916 5916 5916 5916 5915 5915 5915 5915 5914 5912 5911 5909 5908 5907 5906 5905 5904 5903 5902 5901 5900 5899 5898 5898 5897 5896 5895 5895 5895 5894 5893 5893 5892 5892 5891
5900 5904 5905 5907 5908 5910 5911 5913 5913 5914 5915 5915 5916 5916 5916 5916 5915 5915 5914 5912 5911 5910 5909 5908 5907 5906 5905 5904 5902 5902 5901 5900 5899 5898 5897 5896 5896 5895 5895 5894 5893 5892 5892 5892
5897 5900 5902 5904 5906 5908 5910 5911 5912 5912 5913 5914 5915 5916 5916 5916 5915 5915 5914 5913 5912 5911 5910 5909 5908 5908 5907 5905 5904 5903 5902 5902 5901 5900 5898 5898 5897 5896 5895 5894 5893 5893 5892 5892
5893 5896 5899 5901 5904 5906 5907 5909 5910 5910 5911 5912 5913 5915 5916 5915 5915 5915 5914 5913 5913 5912 5911 5910 5909 5909 5908 5907 5906 5905 5904 5903 5902 5901 5900 5898 5897 5896 5895 5894 5893 5892 5892 5891
5889 5892 5895 5898 5901 5902 5904 5906 5907 5908 5909 5910 5912 5913 5914 5914 5914 5914 5914 5913 5913 5912 5911 5911 5910 5909 5909 5908 5907 5906 5905 5904 5902 5901 5900 5899 5898 5897 5896 5894 5893 5892 5891 5891
5884 5888 5891 5894 5897 5899 5901 5903 5904 5905 5906 5908 5909 5910 5913 5913 5913 5913 5913 5912 5912 5911 5911 5911 5910 5910 5909 5908 5908 5906 5905 5904 5903 5902 5900 5899 5898 5897 5896 5895 5893 5892 5891 5890
5879 5883 5887 5890 5893 5895 5897 5899 5901 5903 5904 5905 5906 5907 5911 5911 5911 5911 5911 5911 5911 5910 5910 5910 5909 5909 5909 5908 5907 5907 5905 5904 5903 5902 5900 5899 5898 5897 5896 5895 5893 5892 5891 5889
5874 5879 5883 5885 5888 5891 5893 5895 5897 5899 5900 5902 5903 5905 5907 5908 5909 5909 5909 5909 5909 5909 5909 5908 5908 5908 5908 5908 5907 5906 5905 5904 5903 5902 5900 5899 5897 5896 5895 5894 5893 5892 5890 5889
5869 5873 5877 5880 5883 5885 5888 5891 5893 5894 5895 5897 5899 5901 5904 5905 5907 5907 5907 5907 5907 5907 5907 5907 5907 5907 5907 5907 5906 5905 5905 5904 5903 5901 5900 5898 5897 5896 5895 5894 5893 5891 5890 5888
5863 5867 5872 5874 5877 5880 5883 5886 5887 5890 5892 5893 5894 5899 5900 5902 5903 5904 5904 5905 5905 5905 5905 5905 5905 5905 5905 5905 5905 5904 5904 5903 5901 5900 5899 5897 5896 5895 5894 5893 5891 5890 5888 5886
5856 5860 5864 5868 5872 5874 5877 5880 5883 5885 5887 5889 5890 5896 5896 5898 5899 5900 5901 5902 5902 5902 5902 5903 5903 5903 5903 5902 5902 5902 5901 5901 5899 5898 5897 5896 5895 5894 5892 5891 5889 5888 5886 5884
5850 5853 5858 5862 5866 5869 5870 5873 5877 5880 5882 5883 5886 5891 5892 5893 5895 5896 5898 5898 5898 5899 5899 5900 5900 5900 5900 5899 5899 5899 5898 5897 5897 5896 5895 5893 5893 5892 5890 5889 5887 5885 5884 5882
5843 5846 5851 5856 5859 5862 5865 5868 5871 5874 5876 5878 5881 5884 5887 5889 5890 5892 5893 5894 5895 5895 5896 5896 5896 5896 5896 5896 5896 5895 5895 5895 5894 5893 5891 5890 5889 5888 5887 5886 5884 5883 5881 5879
5836 5840 5844 5849 5853 5856 5859 5862 5864 5867 5870 5873 5876 5878 5882 5884 5886 5887 5888 5889 5890 5891 5891 5892 5892 5892 5892 5892 5891 5891 5891 5891 5890 5889 5888 5887 5886 5885 5884 5883 5881 5880 5878 5876
5829 5833 5837 5841 5845 5848 5851 5855 5858 5861 5864 5866 5869 5872 5876 5878 5880 5882 5883 5884 5885 5885 5886 5887 5887 5888 5888 5887 5887 5886 5886 5886 5886 5885 5884 5884 5882 5881 5880 5879 5877 5876 5874 5872
5821 5826 5830 5834 5837 5840 5843 5848 5851 5854 5857 5860 5863 5867 5870 5872 5874 5876 5877 5878 5879 5880 5881 5881 5882 5882 5883 5883 5882 5881 5881 5881 5881 5880 5880 5879 5878 5877 5875 5874 5872 5871 5870 5868
5814 5818 5822 5826 5830 5832 5839 5841 5844 5847 5850 5853 5856 5860 5863 5865 5868 5869 5871 5872 5873 5874 5875 5876 5876 5876 5876 5876 5876 5876 5876 5875 5875 5875 5875 5874 5873 5872 5870 5868 5867 5866 5864 5863
5806 5810 5814 5818 5821 5824 5830 5833 5837 5840 5843 5846 5849 5852 5855 5858 5860 5863 5865 5866 5867 5868 5869 5869 5870 5870 5870 5869 5870 5869 5869 5869 5868 5868 5868 5867 5866 5865 5864 5862 5861 5859 5858 5857
5797 5801 5806 5809 5813 5816 5824 5827 5829 5833 5835 5839 5842 5844 5847 5850 5853 5856 5858 5859 5860 5861 5861 5862 5862 5862 5862 5862 5862 5863 5862 5862 5861 5861 5860 5860 5859 5858 5857 5855 5854 5852 5851 5850
5788 5792 5796 5800 5804 5809 5815 5818 5821 5826 5829 5832 5834 5837 5839 5842 5845 5848 5849 5851 5852 5853 5853 5854 5854 5853 5854 5854 5854 5855 5854 5853 5853 5853 5852 5852 5851 5850 5849 5848 5846 5845 5844 5843
5779 5784 5788 5792 5796 5803 5806 5810 5814 5817 5821 5823 5826 5828 5831 5833 5836 5838 5840 5842 5843 5844 5845 5845 5845 5845 5845 5846 5846 5846 5846 5845 5844 5844 5844 5843 5843 5841 5840 5839 5838 5837 5836 5835
5771 5776 5780 5784 5790 5794 5798 5802 5805 5808 5812 5815 5818 5820 5823 5825 5828 5829 5831 5833 5834 5835 5836 5836 5837 5837 5836 5836 5836 5836 5836 5835 5835 5835 5835 5834 5833 5832 5830 5829 5829 5828 5827 5826
5762 5767 5771 5775 5780 5785 5789 5793 5796 5799 5803 5806 5809 5812 5814 5817 5819 5821 5822 5823 5824 5826 5826 5826 5827 5827 5827 5827 5826 5826 5826 5826 5825 5826 5825 5825 5823 5822 5821 5820 5819 5818 5818 5816
5754 5758 5762 5766 5771 5775 5780 5783 5787 5790 5794 5797 5800 5803 5805 5807 5809 5811 5813 5814 5815 5816 5816 5816 5816 5816 5816 5816 5815 5816 5816 5816 5816 5816 5815 5814 5813 5812 5811 5810 5809 5808 5807 5806
5746 5750 5754 5758 5762 5766 5770 5774 5778 5781 5785 5788 5790 5793 5796 5798 5800 5802 5803 5804 5806 5806 5806 5806 5806 5806 5806 5807 5807 5806 5806 5805 5806 5806 5805 5804 5803 5802 5800 5799 5799 5798 5797 5796